Location: Bieg
(49.3499°N, 10.3835°E)
Time: 11:58:11
(UTC+00:00)

Sich 1 Rocket - Pass Details

Date: 23 May 2024
Orbit: 613 x 650 km, 82.5° (Epoch: 20 June)

Event Time Altitude Azimuth Distance (km) Brightness Sun altitude
Rises 02:31:34 0° 347° (NNW) 2,961 7.5 -7.6°
Reaches altitude 10° 02:33:51 10° 344° (NNW) 2,042 6.6 -7.3°
Maximum altitude 02:38:18 60° 265° (W) 727 3.7 -6.8°
Drops below altitude 10° 02:42:41 10° 185° (S) 2,002 5.7 -6.2°
Sets 02:44:54 0° 182° (S) 2,898 6.6 -6.0°
